Satellite: NO-44
Catalog number: 26931
Epoch time:      12019.76395178
Element set:     949
Inclination:      067.0517 deg
RA of node:       145.4366 deg
Eccentricity:    0.0005617
Arg of perigee:   278.9894 deg
Mean anomaly:     081.0568 deg
Mean motion:   14.29753247 rev/day
Decay rate:       4.03e-06 rev/day^2
Epoch rev:           53788
Checksum:              351

Satellite: SO-50
Catalog number: 27607
Epoch time:      12019.53094541
Element set:     667
Inclination:      064.5586 deg
RA of node:       030.0812 deg
Eccentricity:    0.0084861
Arg of perigee:   277.4282 deg
Mean anomaly:     081.7185 deg
Mean motion:   14.72168393 rev/day
Decay rate:       7.12e-06 rev/day^2
Epoch rev:           48793
Checksum:              322

Satellite: CO-55
Catalog number: 27844
Epoch time:      12019.57512595
Element set:     291
Inclination:      098.7049 deg
RA of node:       030.1273 deg
Eccentricity:    0.0009229
Arg of perigee:   297.6861 deg
Mean anomaly:     062.3391 deg
Mean motion:   14.20947544 rev/day
Decay rate:       1.89e-06 rev/day^2
Epoch rev:           44364
Checksum:              326

Satellite: CO-57
Catalog number: 27848
Epoch time:      12018.56716377
Element set:     239
Inclination:      098.7137 deg
RA of node:       028.4035 deg
Eccentricity:    0.0009034
Arg of perigee:   305.8022 deg
Mean anomaly:     054.2310 deg
Mean motion:   14.20708757 rev/day
Decay rate:       1.40e-06 rev/day^2
Epoch rev:           44344
Checksum:              292

Satellite: AO-51
Catalog number: 28375
Epoch time:      12018.94947204
Element set:     172
Inclination:      098.1255 deg
RA of node:       351.3901 deg
Eccentricity:    0.0083798
Arg of perigee:   135.4210 deg
Mean anomaly:     225.3734 deg
Mean motion:   14.40884510 rev/day
Decay rate:       1.65e-06 rev/day^2
Epoch rev:           39713
Checksum:              301

Satellite: CP3
Catalog number: 31129
Epoch time:      12019.57513408
Element set:      72
Inclination:      097.8870 deg
RA of node:       036.1577 deg
Eccentricity:    0.0100707
Arg of perigee:   228.0715 deg
Mean anomaly:     131.1862 deg
Mean motion:   14.52855850 rev/day
Decay rate:       6.20e-06 rev/day^2
Epoch rev:           25225
Checksum:              280

Satellite: CO-65
Catalog number: 32785
Epoch time:      12018.69404457
Element set:     206
Inclination:      097.8216 deg
RA of node:       083.1954 deg
Eccentricity:    0.0014440
Arg of perigee:   189.6401 deg
Mean anomaly:     170.4517 deg
Mean motion:   14.82621130 rev/day
Decay rate:      1.223e-05 rev/day^2
Epoch rev:           20146
Checksum:              283

Satellite: PRISM
Catalog number: 33493
Epoch time:      12019.72393105
Element set:     345
Inclination:      098.1481 deg
RA of node:       157.0240 deg
Eccentricity:    0.0020168
Arg of perigee:   063.0040 deg
Mean anomaly:     297.3237 deg
Mean motion:   14.83065682 rev/day
Decay rate:      2.246e-05 rev/day^2
Epoch rev:           16159
Checksum:              277

Satellite: SOHLA-1
Catalog number: 33496
Epoch time:      12019.89028227
Element set:     627
Inclination:      098.0934 deg
RA of node:       132.7555 deg
Eccentricity:    0.0007065
Arg of perigee:   148.0061 deg
Mean anomaly:     212.1575 deg
Mean motion:   14.69845197 rev/day
Decay rate:       4.80e-06 rev/day^2
Epoch rev:           16031
Checksum:              301

Satellite: TISAT-1
Catalog number: 36799
Epoch time:      12019.35333466
Element set:     617
Inclination:      098.0782 deg
RA of node:       094.5618 deg
Eccentricity:    0.0013998
Arg of perigee:   300.1378 deg
Mean anomaly:     059.8451 deg
Mean motion:   14.81425326 rev/day
Decay rate:      1.343e-05 rev/day^2
Epoch rev:            8230
Checksum:              315

Satellite: STUDSAT
Catalog number: 36801
Epoch time:      12018.86998676
Element set:     321
Inclination:      098.0845 deg
RA of node:       094.2446 deg
Eccentricity:    0.0012283
Arg of perigee:   288.4371 deg
Mean anomaly:     071.5498 deg
Mean motion:   14.82862483 rev/day
Decay rate:      3.047e-05 rev/day^2
Epoch rev:            8223
Checksum:              324

Satellite: OOREOS
Catalog number: 37224
Epoch time:      11330.25217324
Element set:    0033
Inclination:      071.9741 deg
RA of node:       041.3371 deg
Eccentricity:    0.0020052
Arg of perigee:   337.4654 deg
Mean anomaly:     022.5620 deg
Mean motion:   14.77385090 rev/day
Decay rate:      2.151e-05 rev/day^2
Epoch rev:           00594
Checksum:              243

Satellite: FO-69
Catalog number: 37227
Epoch time:      12018.13838078
Element set:    0079
Inclination:      071.9715 deg
RA of node:       285.2240 deg
Eccentricity:    0.0018772
Arg of perigee:   243.3066 deg
Mean anomaly:     116.6174 deg
Mean motion:   14.76896760 rev/day
Decay rate:       4.22e-06 rev/day^2
Epoch rev:           01379
Checksum:              322

